Regional Weather Roundup
Issued by NWS Kansas City/Pleasant Hill, MO

Home | Current Version | Previous Version | Graphics & Text | Print | Product List | Glossary Off
Versions: 1 2 3 4 5 6 7 8 9 10 11 12 13 14 15 16 17 18 19 20 21 22 23 24 25 26 27 28

000
ASUS43 KEAX 282210
RWREAX

WEATHER ROUNDUP FOR EASTERN KANSAS AND NORTHWEST MISSOURI
NATIONAL WEATHER SERVICE KANSAS CITY/PLEASANT HILL MO
500 PM CDT WED SEP 28 2016

KSZ040-057-103>105-MOZ028-029-037-043-282300-
...KANSAS CITY METROPOLITAN AREA...

CITY           SKY/WX    TMP DP  RH WIND       PRES   REMARKS
K.C. INTL      MOSUNNY   66  47  50 N12       30.16R
K.C. DOWNTOWN  SUNNY     68  46  45 N16G22    30.14R
LEES SUMMIT    SUNNY     66  48  52 NE15      30.15R
OLATHE - IXD   SUNNY     66  47  50 N12       30.15R
OLATHE - OJC   SUNNY     67  46  47 N10       30.15R
LAWRENCE       SUNNY     69  48  47 N15       30.15R

$$

MOZ001>008-011>017-020>025-030>033-038>040-044>046-053-054-282300-
...NORTHERN AND CENTRAL MISSOURI...

CITY           SKY/WX    TMP DP  RH WIND       PRES   REMARKS
ST. JOSEPH     SUNNY     67  47  48 N16       30.18R
MOSBY          PTCLDY    66  45  45 N8G17     30.16R
WHITEMAN AFB   MOSUNNY   67  47  47 N17       30.11R
CLINTON        SUNNY     66  46  48 N12G21    30.12R
SEDALIA        MOSUNNY   70  46  42 N12G24    30.13R
WARSAW         NOT AVBL
CHILLICOTHE      N/A     65  47  52 N7        30.17R
KIRKSVILLE     PTSUNNY   62  49  62 NW13      30.15R

$$

MOZ041-047>049-056>058-063>065-088>090-097-282300-
...EASTERN AND SOUTHERN MISSOURI...

CITY           SKY/WX    TMP DP  RH WIND       PRES   REMARKS
ST. LOUIS INTL PTSUNNY   66  45  46 N16G23    30.06R
SPIRIT OF STL  PTSUNNY   66  46  48 N13       30.05R
COLUMBIA       PTSUNNY   67  47  48 N15       30.10R
JEFFERSON CITY MOSUNNY   68  46  45 N10       30.09R
ROLLA          MOSUNNY   66  46  48 N13       30.07R
OSAGE BEACH    SUNNY     67  48  50 VRB6      30.10R
SPRINGFIELD    SUNNY     70  46  42 N13       30.08R
BRANSON        SUNNY     73  45  35 NW12G17   30.05R
JOPLIN         SUNNY     71  48  43 N10G21    30.10R
WEST PLAINS    SUNNY     72  45  37 N9        30.05R

$$

IAZ060-094-KSZ022-034>040-054-083-096-NEZ052-066-093-282300-
...KANSAS...SOUTHEAST NEBRASKA AND IOWA...

CITY           SKY/WX    TMP DP  RH WIND       PRES   REMARKS
TOPEKA         SUNNY     68  47  46 N14       30.16R
MANHATTAN      SUNNY     70  46  42 NE13      30.18R
EMPORIA        SUNNY     69  47  45 N12       30.16R
CHANUTE        LGT RAIN  72  48  42 NE14G21   30.12R
WICHITA        MOSUNNY   75  46  35 N20G26    30.13S
OMAHA          MOSUNNY   66  46  48 NE13      30.22R
LINCOLN        SUNNY     69  43  38 NE14G22   30.22R
FALLS CITY     SUNNY     67  46  47 N14G21    30.18R
LAMONI         CLOUDY    60  48  64 N14       30.19R
DES MOINES     CLOUDY    61  49  64 N10       30.19R

$$





USA.gov is the U.S. government's official web portal to all federal, state and local government web resources and services.